Retour au catalogue

STARLINK-36211

ActifCommunicationsVLEO
NORAD 67218·PAYLOAD·🇺🇸 United States

Lancé Dec 17, 2025 depuis Vandenberg Space Force Base

Loading…

Prochains Passages (prochaines 24 heures)

TLE

FraisSource: CelesTrak SupGP

Époque: Sep 14, 2026, 21:15 UTC

1 67218C 25304AC  26257.88590278  .00028732  00000+0  24079-2 0  2579
2 67218  70.0016  57.3987 0002684 271.1907 136.3280 14.98317272    14

Suivez STARLINK-36211 en temps réel avec AllMySat

Download on the App Store